Tracking 35280 objects as of 7-Sep-2026
HD Live streaming from Space Station
objects crossing your sky now

COSMOS 1813 DEB


COSMOS 1813 DEB is no longer on orbit


NORAD ID: 18053
Int'l Code: 1987-004FG
Launch date: January 15, 1987
Source: Commonwealth of Independent States (former USSR) (CIS)
Launch site: PLESETSK MISSILE AND SPACE COMPLEX (PKMTR)
Decay date: 1987-06-29

Note: This is SATELLITE DEBRIS
Your satellite tracking list
Your tracking list is empty




NASA's NSSDC Master Catalog

Two Line Element Set (TLE):
1 18053U 87004 FG 87179.61434238  .05279367 +86680-5 +49938-3 0  9997
2 18053 072.8151 245.2288 0014624 293.9087 066.0481 16.38045115019862
Source of the keplerian elements: AFSPC